Location: Aranbee
(34.0885°N, 118.2342°W)
Time: 13:08:26
(UTC+00:00)

Tiros 1 - Pass Details

Date: 03 December 2020
Orbit: 630 x 663 km, 48.4° (Epoch: 21 January)

Event Time Altitude Azimuth Distance (km) Brightness Sun altitude
Rises 19:53:24 0° 211° (SSW) 2,969 11.4 33.6°
Reaches altitude 10° 19:55:50 10° 204° (SSW) 2,064 11.0 33.6°
Maximum altitude 20:00:19 41° 135° (SE) 957 9.0 33.5°
Drops below altitude 10° 20:04:49 10° 66° (ENE) 2,079 9.6 33.4°
Sets 20:07:16 0° 59° (ENE) 2,993 10.3 33.4°
